Voltar ao catálogo

STARLINK-32090

AtivoComunicaçõesVLEO
NORAD 59691·PAYLOAD·🇺🇸 United States

Lançado May 8, 2024 de Cape Canaveral Space Force Station

Loading…

Próximas Passagens (próximas 24 horas)

TLE

AtualizadoSource: CelesTrak SupGP

Época: Sep 15, 2026, 02:58 UTC

1 59691C 24086K   26258.12409722 -.00017045  00000+0 -61722-3 0  2587
2 59691  43.0033  73.9442 0001839 269.8199 275.9721 15.27593445    18

Acompanhe STARLINK-32090 em tempo real com AllMySat

Download on the App Store